[keps] orb10224.2l.amsat
Ray Hoad
ray.hoad at mypbmail.com
Thu Aug 12 19:24:38 PDT 2010
SB KEPS @ AMSAT $ORB10224.N
2Line Orbital Elements 10224.AMSAT
HR AMSAT ORBITAL ELEMENTS FOR AMATEUR SATELLITES IN NASA FORMAT
FROM WA5QGD FORT WORTH,TX August 12, 2010
Send Subscribe/unsubscribe to KEPS at http://www.amsat.org/mailman/listinfo/keps
BID: ORB10224.N
DECODE 2-LINE ELSETS WITH THE FOLLOWING KEY:
1 AAAAAU 00 0 0 BBBBB.BBBBBBBB .CCCCCCCC 00000-0 00000-0 0 DDDZ
2 AAAAA EEE.EEEE FFF.FFFF GGGGGGG HHH.HHHH III.IIII JJ.JJJJJJJJKKKKKZ
KEY: A-CATALOGNUM B-EPOCHTIME C-DECAY D-ELSETNUM E-INCLINATION F-RAAN
G-ECCENTRICITY H-ARGPERIGEE I-MNANOM J-MNMOTION K-ORBITNUM Z-CHECKSUM
TO ALL RADIO AMATEURS BT
AO-07
1 07530U 74089B 10223.58821019 -.00000027 00000-0 10000-3 0 8505
2 07530 101.4008 237.3044 0011772 164.4122 195.7313 12.53579134635397
FO-29
1 24278U 96046B 10223.93777215 -.00000008 00000-0 29402-4 0 03980
2 24278 098.5155 045.3606 0350822 339.3990 019.3298 13.52951543690643
SO-33
1 25509U 98061B 10223.26622241 .00000194 00000-0 28595-4 0 07724
2 25509 031.4303 197.0433 0353433 051.5340 311.6447 14.28323058615939
RS-22
1 27939U 03042A 10224.46358057 .00000064 00000-0 21070-4 0 4456
2 27939 097.8847 087.5405 0012554 239.7486 120.2473 14.63441200367189
VO-52
1 28650U 05017B 10223.70905938 .00000439 00000-0 61719-4 0 05735
2 28650 097.6883 274.9657 0028357 094.5213 265.9269 14.81787425284913
SO-67
1 35870U 09049F 10224.43930909 .00000725 00000-0 35727-4 0 28
2 35870 097.3278 272.0751 0001363 262.6943 227.2455 15.20995255 50005
HO-68
1 36122U 09072B 10224.34213893 -.00000045 00000-0 00000 0 0 5719
2 36122 100.4649 284.1923 0007265 207.0395 153.0340 13.16281531 31602
UO-11
1 14781U 84021B 10223.67110601 .00000253 00000-0 40705-4 0 03125
2 14781 098.0520 275.5685 0010084 062.5727 297.6484 14.79824586420018
AO-16
1 20439U 90005D 10223.81272989 .00000017 00000-0 21930-4 0 9678
2 20439 098.3363 179.5421 0011282 006.7042 353.4291 14.31869828 73348
LO-19
1 20442U 90005G 10223.45218803 -.00000016 00000-0 93681-5 0 08781
2 20442 098.2969 184.7744 0011915 002.2717 357.8506 14.32100064073463
AO-27
1 22825U 93061C 10223.80655235 .00000099 00000-0 55735-4 0 06006
2 22825 098.4882 170.3270 0009302 103.2466 256.9764 14.29304788879993
IO-26
1 22826U 93061D 10223.79205685 .00000010 00000-0 20471-4 0 03385
2 22826 098.4821 170.8934 0009884 099.2718 260.9583 14.29561193880102
GO-32
1 25397U 98043D 10223.50151346 -.00000119 00000-0 -34772-4 0 02581
2 25397 098.3136 227.9084 0002278 092.0346 268.1095 14.23182155627911
NO-44
1 26931U 01043C 10224.59210436 -.00000057 00000-0 10093-4 0 5310
2 26931 067.0506 058.6511 0005091 264.5161 095.5355 14.29606588462815
SO-50
1 27607U 02058C 10223.46295853 .00000032 00000-0 26699-4 0 02430
2 27607 064.5561 188.6201 0037673 051.7666 308.6817 14.71562424410514
CO-55
1 27844U 03031E 10223.52090517 .00000060 00000-0 48047-4 0 09116
2 27844 098.7104 231.7025 0010445 016.8003 343.3515 14.20722529368946
CO-57
1 27848U 03031J 10223.48815599 .00000053 00000-0 45247-4 0 8581
2 27848 098.7153 230.7740 0010394 021.0021 339.1605 14.20514174368890
AO-51
1 28375U 04025K 10223.77945460 .00000017 00000-0 18098-4 0 7464
2 28375 098.0655 214.1194 0083533 289.4717 069.7464 14.40693877321519
GENESAT1
1 29655U 06058C 10216.61700559 .10637092 69904-5 33715-3 0 2265
2 29655 040.0059 067.3006 0005079 297.8744 064.7087 16.44862838207776
CP3
1 31129U 07012N 10224.09242018 .00000741 00000-0 18034-3 0 6483
2 31129 097.9355 260.6613 0103651 061.1049 300.0530 14.52292162175971
CO-65
1 32785U 08021C 10223.33845754 .00000217 00000-0 34175-4 0 07568
2 32785 097.8930 287.4923 0015950 103.1396 257.1639 14.81693634123656
KKS-1
1 33493U 09002B 10224.46534200 .00000475 00000-0 68237-4 0 7507
2 33493 098.0908 344.4549 0019196 322.7567 037.2303 14.81060159 83812
SOHLA-1
1 33496U 09002E 10224.47225596 .00000008 00000-0 95721-5 0 1769
2 33496 098.0627 332.8289 0007260 032.1026 328.0616 14.69507964 83146
TISAT-1
1 36799U 10035E 10223.69075515 .00000418 00000-0 62225-4 0 00499
2 36799 098.1456 283.2798 0014985 192.0971 167.9867 14.80139423004524
STUDSAT
1 36801U 10035G 10223.70267754 .00000902 00000-0 12756-3 0 483
2 36801 098.1457 283.2597 0013507 179.8305 180.2907 14.79578102 4521
NOAA-10
1 16969U 86073A 10223.66923751 .00000112 00000-0 63584-4 0 01651
2 16969 098.6542 252.1092 0013102 051.8722 308.3637 14.27424066243498
NOAA-11
1 19531U 88089A 10223.75113089 -.00000214 00000-0 -88321-4 0 01777
2 19531 098.7697 311.8296 0011664 354.1820 005.9223 14.14931045128990
NOAA-12
1 21263U 91032A 10223.72582260 .00000016 00000-0 25454-4 0 06672
2 21263 098.7647 236.8787 0012660 010.1394 350.0026 14.25647811000310
MET-3/5
1 21655U 91056A 10224.54908711 .00000051 00000-0 10000-3 0 8869
2 21655 082.5559 268.8162 0012851 202.5925 157.4670 13.17025417913093
MET-2/21
1 22782U 93055A 10223.90061367 .00000037 00000-0 20639-4 0 08569
2 22782 082.5450 208.2368 0020782 244.7463 115.1554 13.83646098855788
OKEAN-4
1 23317U 94066A 10223.65533031 .00000197 00000-0 21241-4 0 03114
2 23317 082.5430 302.0896 0023800 061.5884 298.7748 14.82845741854672
NOAA-14
1 23455U 94089A 10223.69754683 -.00000050 00000-0 -32362-5 0 01579
2 23455 098.8763 304.0494 0010327 078.8000 281.4347 14.13790746805343
NOAA-15
1 25338U 98030A 10223.77063533 .00000254 00000-0 12735-3 0 04822
2 25338 098.6222 209.7097 0009583 274.5963 085.4105 14.24848358636664
RESURS
1 25394U 98043A 10223.63837567 -.00000006 00000-0 14953-4 0 05764
2 25394 098.3044 238.6991 0002572 064.8649 295.2801 14.24207405628242
FENGYUN1
1 25730U 99025A 10223.86807708 .00000926 00000-0 56607-3 0 01125
2 25730 098.7867 187.3751 0023295 106.3577 254.0134 14.08245290579528
OKEAN-0
1 25860U 99039A 10224.43360208 .00000071 00000-0 18224-4 0 705
2 25860 097.8371 195.2356 0000599 080.7473 279.3809 14.73654523595187
NOAA-16
1 26536U 00055A 10223.82958486 .00000135 00000-0 98271-4 0 09608
2 26536 099.1699 242.6078 0010537 176.2158 183.9097 14.12571538509684
NOAA-17
1 27453U 02032A 10223.92012025 -.00000021 00000-0 92126-5 0 09547
2 27453 098.4266 272.1081 0011305 339.5661 020.5030 14.24179901422637
NOAA-18
1 28654U 05018A 10223.87989485 -.00000082 00000-0 -20612-4 0 04403
2 28654 098.9525 169.9921 0013316 256.5487 103.4190 14.11378480269296
NOAA-19
1 33591U 09005A 10223.73830147 .00000291 00000-0 18559-3 0 06367
2 33591 098.7898 164.6837 0014836 129.4343 230.8125 14.11075876077741
HUBBLE
1 20580U 90037B 10223.16905948 .00000524 00000-0 27229-4 0 6257
2 20580 028.4692 240.9217 0003329 071.6612 288.4341 15.01013541913029
ISS
1 25544U 98067A 10225.02010417 .00014034 00000-0 11052-3 0 6963
2 25544 051.6476 299.7730 0006444 215.8269 153.3787 15.71754969672417
CO-58
1 28895U 05043F 10223.70311294 .00000222 00000-0 55593-4 0 06555
2 28895 098.0073 106.3205 0018990 109.9426 250.3848 14.59919241255081
FALCON
1 30776U 07006E 10224.71765493 .00000940 00000-0 70104-4 0 8906
2 30776 035.4336 061.0626 0002017 310.3431 049.7107 15.03759662188576
MAST
1 31126U 07012K 10223.63473047 .00000294 00000-0 76457-4 0 09375
2 31126 097.9331 262.7688 0095781 054.2605 306.7435 14.53610204176118
CAPE1
1 31130U 07012P 10224.08448448 .00000331 00000-0 86386-4 0 9562
2 31130 097.9387 260.4955 0103850 061.0035 300.1530 14.52209208175778
COMPASS
1 32787U 08021E 10223.19894539 .00000267 00000-0 40309-4 0 07470
2 32787 097.8911 287.1901 0016915 105.4219 254.8861 14.81931403123640
AAUSAT2
1 32788U 08021F 10223.12912983 .00000042 00000-0 11904-4 0 07412
2 32788 097.8920 287.2623 0016711 105.5452 254.7649 14.82075586123642
DO-64
1 32789U 08021G 10223.87481527 .00000649 00000-0 87832-4 0 07607
2 32789 097.8983 288.5337 0016775 101.9130 258.3964 14.82249335123758
CO-66
1 32791U 08021J 10223.22902863 .00000492 00000-0 68964-4 0 07410
2 32791 097.8925 287.2283 0017232 103.3434 256.9670 14.81709581123600
RS-30
1 32953U 08025A 10224.47181116 .00000010 00000-0 00000 0 0 9467
2 32953 082.5037 354.6735 0018392 343.1343 016.9123 12.43007188100733
TACSAT-3
1 35001U 09028A 10223.48319329 .00004734 00000-0 11210-3 0 03715
2 35001 040.4548 241.8410 0020749 056.5261 303.7534 15.42271497069173
PHARMSAT
1 35002U 09028B 10223.41895536 .00004059 00000-0 95267-4 0 03409
2 35002 040.4685 240.0411 0023287 059.6564 300.6551 15.42748425069184
HAWKSAT1
1 35003U 09028C 10223.40311774 .00009246 00000-0 18602-3 0 03697
2 35003 040.4604 233.2284 0020885 077.7434 282.5719 15.46327500069260
CP6
1 35004U 09028D 10223.43201366 .00011624 00000-0 22470-3 0 3574
2 35004 040.4609 231.6757 0019482 084.2307 276.0729 15.47343120 69273
AEROCUB3
1 35005U 09028E 10224.35753401 .00043345 00000-0 62550-3 0 4073
2 35005 040.4682 220.4446 0018057 110.0933 250.1826 15.54961068 69485
CASTOR
1 35694U 09038F 10224.44218752 .00696839 11998-4 22970-3 0 6374
2 35694 051.6228 255.5901 0005438 007.4300 352.7329 16.25174980 60127
METEOR-M
1 35865U 09049A 10224.57232722 .00000176 00000-0 10000-3 0 5532
2 35865 098.7537 277.9558 0001758 186.2688 173.8464 14.21831220 46738
RS-38
1 35869U 09049E 10224.53770658 .00000177 00000-0 10000-3 0 5673
2 35869 098.7530 277.9577 0004134 192.9379 167.1658 14.21986469 46735
/EX
More information about the Keps
mailing list